Regional Weather Roundup
Issued by NWS

Home | Current Version | Previous Version | Graphics & Text | Print | Product List | Glossary On
Versions: 1 2 3 4 5 6 7 8 9 10 11 12 13 14 15 16 17 18 19 20 21 22 23 24 25 26 27 28
000
ASUS45 KTFX 191510
RWRMT
MONTANA REGIONAL WEATHER ROUNDUP
NATIONAL WEATHER SERVICE GREAT FALLS MT
800 AM MST SUN NOV 19 2017

NOTE: "FAIR" INDICATES FEW OR NO CLOUDS BELOW 12000 FEET WITH NO
SIGNIFICANT WEATHER AND/OR OBSTRUCTIONS TO VISIBILITY.

MTZ001>007-043-191600-
WEST OF THE DIVIDE

CITY           SKY/WX    TMP DP  RH WIND       PRES   REMARKS
KALISPELL      CLOUDY    25  23  92 CALM      30.03F
MISSOULA       FAIR      23  21  92 SE5       30.08F
BUTTE          FAIR      10   5  80 SE5       30.03F
MULLAN PASS    FAIR      21  16  81 S6        29.95S WCI  13
ANACONDA         N/A     21   9  58 SW5       30.02S
DEER LODGE       N/A     16  12  86 CALM      30.05S
EUREKA           N/A     32  23  69 MISG      30.01S
HAMILTON         N/A     25  19  80 CALM      30.08R
LIBBY            N/A     21  21 100 CALM      30.04R
$$

MTZ008-052>055-191600-
SOUTHWEST MONTANA

CITY           SKY/WX    TMP DP  RH WIND       PRES   REMARKS
BOZEMAN        FAIR      21  15  78 S5        30.05S
DILLON         FAIR      27  16  63 S9        30.07S WCI  18
W YELLOWSTONE  FAIR      14  12  92 CALM      30.19S
ENNIS          CLOUDY    30  14  51 S22G32    30.12S WCI  17
TWIN BRIDGES     N/A     28  14  55 CALM      30.05F
$$

MTZ009-010-012-014-046-048-049-054-191600-
EAST SLOPES AND CENTRAL MONTANA

CITY           SKY/WX    TMP DP  RH WIND       PRES   REMARKS
CUT BANK       FAIR      38  17  42 SW26G37   29.76F WCI  26
GREAT FALLS    FAIR      41  10  28 SW37G47   29.85S
MALMSTROM AFB  MOCLDY    40  14  33 SW24G32   29.86S
HELENA         FAIR      23  16  74 CALM      30.02F
BOWMANS CRNR   FAIR      33  13  45 SW25G31   29.86F WCI  19
CHOTEAU          N/A     34  16  47 S7        29.85S WCI  28
FAIRFIELD      FAIR      35  14  42 S20G25    29.84S WCI  23
POWER          MOCLDY    37  12  36 SW25G32   29.84F WCI  25
RAYNESFORD     MOCLDY    46   6  19 SW25G38   29.85S
ULM            MOCLDY    41  12  30 SW18G28   29.90F
$$

MTZ011-013-016-021-045-047-050-051-191600-
NORTH CENTRAL MONTANA

CITY           SKY/WX    TMP DP  RH WIND       PRES   REMARKS
HAVRE          FAIR      32  21  64 NW5       29.79F
LEWISTOWN      FAIR      41  14  33 SW16      29.85S
N BAR RANCH    FAIR      32  12  43 NW5       29.88F
CHINOOK          N/A     25  19  80 CALM      29.80F
DENTON         MOCLDY    44  13  28 SW14      29.80F
GEYSER         CLOUDY    45   9  23 W12       29.82F
GRASS RANGE    MOCLDY    30  18  60 W3        29.82F
STANFORD       MOCLDY    45   9  23 W6        29.84R
WINIFRED       MOCLDY    38  13  36 SW3       29.83S
$$

MTZ017>020-022>027-061-062-191600-
NORTHEAST MONTANA

CITY           SKY/WX    TMP DP  RH WIND       PRES   REMARKS
GLASGOW        FAIR      26  19  74 S5        29.84F
GLENDIVE       FAIR      25  20  81 SE6       29.90F WCI  18
JORDAN           N/A     26  21  81 W5        29.87F
SIDNEY         FAIR      21  19  92 S5        29.88F
WOLF POINT     FAIR      23  19  85 SW9       29.87F WCI  13
MALTA          CLEAR     23  21  93 CALM      29.84F
PLENTYWOOD       N/A     25  18  74 CALM      29.82F
POPLAR           N/A     23  18  80 S3        29.87F
$$

MTZ028>42-056>058-191600-
SOUTHCENTRAL AND SOUTHEAST MONTANA

CITY           SKY/WX    TMP DP  RH WIND       PRES   REMARKS
BAKER          FAIR      27  20  75 CALM      29.93S
BILLINGS       MOCLDY    39  16  39 W17       29.93S WCI  30
LIVINGSTON     FAIR      36  16  44 SW41G64   29.91F WCI  21
MILES CITY     FAIR      26  21  81 S8        29.92F WCI  18
BIG TIMBER     CLEAR     37  14  38 W30       29.96S WCI  25
FORSYTH          N/A     34  19  55 CALM      29.91F
HARLOWTON      CLOUDY    36  18  48 W28G39    29.89S WCI  23
LAUREL           N/A     39  14  35 SW7G14    29.95S
$$

REGIONAL REPORTS...DAKOTAS

CITY           SKY/WX    TMP DP  RH WIND       PRES   REMARKS
WILLISTON      FAIR      22  19  89 S6        29.86F WCI  14
MINOT          FAIR      31  21  66 SW10      29.81F WCI  22
DICKINSON      FAIR      31  20  63 W14       29.87S WCI  21
BEACH          FAIR      28  19  69 SW13      29.92S WCI  18
CROSBY         FAIR      21  18  86 S10       29.83S WCI  10
TIOGA          FAIR      23  23 100 W7        29.84S WCI  15
BISMARCK       FAIR      30  25  81 SW5       29.91F
GRAND FORKS    MOCLDY    18  14  84 S8        29.89F WCI   8
FARGO          FAIR      20  15  81 S12       29.93F WCI   8
BUFFALO SD       N/A     29  19  66 W7        29.87S WCI  22
RAPID CITY     FAIR      28  20  71 CALM      29.98S
$$

REGIONAL REPORTS...WYOMING/IDAHO/WASHINGTON

CITY           SKY/WX    TMP DP  RH WIND       PRES   REMARKS
GILLETTE       FAIR      37  15  40 SW20      29.96F WCI  27
SHERIDAN       FAIR      22  17  81 S5        29.94F
BUFFALO WY     FAIR      42   9  25 S6        29.96S
CODY           FAIR      29  16  58 CALM      30.02R
YELLOWSTONE LA   N/A     10   8  92 CALM      30.19S
IDAHO FALLS    FAIR      21  18  88 VRB3      30.25S
SALMON         FAIR      18  14  84 CALM      30.21R
BOISE          FAIR      30  21  69 SE7       30.19F WCI  23
SPOKANE        FAIR      32  26  78 SE5       30.01R
$$

REGIONAL REPORTS...ALBERTA

CITY           SKY/WX    TMP DP  RH WIND       PRES   REMARKS
EDMONTON       CLOUDY    23  16  74 E5        29.51F
CALGARY        MOCLDY    41  18  38 W7        29.56F
LETHBRIDGE     MOCLDY    34  21  60 W17       29.69F WCI  23
MEDICINE HAT   MOCLDY    34  23  64 SW18      29.67F WCI  23
$$

REGIONAL REPORTS...SASKATCHEWAN

CITY           SKY/WX    TMP DP  RH WIND       PRES   REMARKS
SWIFT CURRENT  CLEAR     27  16  63 SW9       29.70F WCI  17
REGINA         MOCLDY    10   9  92 CALM      29.77F
SASKATOON      PTCLDY     5   1  85 N7        29.77F WCI  -7
$$




USA.gov is the U.S. government's official web portal to all federal, state and local government web resources and services.